Other Public Products
Issued by NWS Charleston, SC

Current Version | Previous Version | Text Only | Print | Product List | Glossary Off
Versions: 1 2 3 4 5 6 7 8 9 10 11 12 13 14 15 16 17 18 19 20 21 22 23 24 25 26 27 28 29 30 31 32 33 34 35 36 37 38 39 40 41 42 43 44 45 46 47 48 49 50

000
FPUS82 KCHS 182027
OPUCHS

TEST...KCHS/KSAV Gateway Observations...TEST
National Weather Service Charleston SC
300 PM EST THU JAN 18 2018

NOTE: "fair" indicates few or no clouds below 12,000 feet with no
significant weather and/or obstructions to visibility.

SCZ050-WAZ558-NCZ071-TXZ119-213-PAZ071-DCZ001-FLZ074-172-MI076-
NYZ176-178-MAZ016-IL014-TNZ027-NJZ106-GAZ044-MD014-182100-

...Gateway Observations for Charleston International...

CITY           SKY/WX    TMP DP  RH WIND       PRES   REMARKS
Chas Airport   FAIR      46  10  23 NW14      30.29F
Seattle        PTSUNNY   49  38  65 S13       29.80F
Charlotte      FAIR      37  20  50 SW9       30.27F WCI  30
Dallas DFW     MOSUNNY   46  10  23 S10       30.36F
Dallas Love    MOSUNNY   45  13  27 S10       30.39F
Philladelphia  FAIR      35   8  32 NW12      29.99F WCI  27
Wash National  FAIR      46   2  16 W16G22    30.04F
Baltimore      FAIR      41  11  29 W15G23    30.01F
Miami          FAIR      63  45  51 VRB6G16   30.23F
Detroit        PTSUNNY   27  16  63 SW15      30.03F WCI  15
Newark         FAIR      34   9  35 W15G24    29.94S WCI  24
Laguardia      FAIR      32  12  43 NW15      29.92F WCI  22
J F K          FAIR      33  10  38 NW17G23   29.93S WCI  22
Boston Logan   FAIR      30  16  56 NW13G22   29.85F WCI  20
Ft. Lauderdale FAIR      61  48  62 N9G21     30.23F
Chicago O`Hare FAIR      32  17  54 SW16G22   30.00F WCI  21
Chicago Midway FAIR      32  17  54 SW17      30.04F WCI  21
Houston Bush   CLOUDY    36  14  40 SE5       30.49F WCI  32
Houston Hobby  CLOUDY    36  19  50 E5        30.48F WCI  32
Nashville      FAIR      33  14  45 S3        30.43F
Atlanta        FAIR      40  14  34 NW9       30.35F WCI  34

$$

GAZ044-118-TXZ119-213-NCZ071-DCZ001-MDZ014-506-PAZ021-071-NJZ106-
NYZ176-178-MAZ106-OHZ011-021-055-MIZ076-KYZ091-ILZ014-INZ047-
MNZ060-ONZ431-182100-

...Gateway Observations for Savannah International...

CITY           SKY/WX    TMP DP  RH WIND       PRES   REMARKS
Savannah Arpt  FAIR      49   7  18 N6        30.32F
Atlanta        FAIR      40  14  34 NW9       30.35F WCI  34
Charlotte      FAIR      37  20  50 SW9       30.27F WCI  30
Dallas DFW     MOSUNNY   46  10  23 S10       30.36F
Houston Bush   CLOUDY    36  14  40 SE5       30.49F WCI  32
Wash National  FAIR      46   2  16 W16G22    30.04F
Wash Dulles    FAIR      44   4  19 W12G17    30.03F
Baltimore      FAIR      41  11  29 W15G23    30.01F
Philadelphia   FAIR      35   8  32 NW12      29.99F WCI  27
Newark         FAIR      34   9  35 W15G24    29.94S WCI  24
Laguardia      FAIR      32  12  43 NW15      29.92F WCI  22
J F K          FAIR      33  10  38 NW17G23   29.93S WCI  22
Boston         FAIR      30  16  56 NW13G22   29.85F WCI  20
Pittsburg      FAIR      26  10  50 SW14G21   30.12S WCI  14
Akron          FAIR      25  12  58 SW16      30.10S WCI  12
Cleveland      FAIR      29  13  51 SW15G24   30.12S WCI  18
Cincinnati     FAIR      30  15  53 SW12G21   30.23F WCI  20
Columbus       FAIR      26  13  57 SW14      30.20F WCI  15
Detroit        PTSUNNY   27  16  63 SW15      30.03F WCI  15
Chicago O`Hare FAIR      32  17  54 SW16G22   30.00F WCI  21
Minneapolis    PTSUNNY   41  26  55 SW10      29.80F
Indianapolis   FAIR      29  14  53 SW14      30.19F WCI  18
Toronto Canada CLOUDY    23  14  68 SW13      29.97F WCI  11

$$




USA.gov is the U.S. government's official web portal to all federal, state and local government web resources and services.